Location: Pilipovskiye Korichintsy
(49.1833°N, 27.4667°E)
Time: 21:44:02
(UTC+00:00)

Cosmos 1378 Rocket - Pass Details

Date: 14 July 2020
Orbit: 602 x 626 km, 82.5° (Epoch: 10 August)

Event Time Altitude Azimuth Distance (km) Brightness Sun altitude
Rises 00:38:27 0° 352° (N) 2,900 7.8 -12.4°
Reaches altitude 10° 00:40:42 10° 356° (N) 1,993 7.0 -12.2°
Maximum altitude 00:45:05 62° 78° (ENE) 703 4.1 -11.8°
Drops below altitude 10° 00:49:27 10° 159° (SSE) 1,990 5.8 -11.4°
Enters shadow 00:51:30 - 163° (SSE) 2,809 6.6 -11.2°
